User: anonymous   Login
Location: Asheville, NC
(35.6000°N, 82.5500°W)
Time: 23:02:31
(UTC-04:00)
Language:

HO-68 - Orbit

View from above orbital plane
View from above orbital plane
View from above satellite
View from above satellite

Ground track
Ground track

The orbit data is extracted from the following two-line orbital elements,

1 36122U 09072B   18113.59291705 -.00000033 +00000-0 +24140-4 0  9996
2 36122 100.0789 130.7749 0006907 235.3364 124.7099 13.16344290401369
Epoch (UTC): 23 April 2018 14:13:48
Eccentricity: 0.0006907
inclination: 100.0789°
perigee height: 1193 km
apogee height: 1204 km
right ascension of ascending node: 130.7749°
argument of perigee: 235.3364°
revolutions per day: 13.16344290
mean anomaly at epoch: 124.7099°
orbit number at epoch: 40136

The dashed part of the orbit path shows where the satellite is in the earth's shadow,  

DLR